STARLINK-1356, 45564

Orbit data source: Space-Track

STARLINK-1356, 45564 is a payload satellite owned by SpaceX/Seattle (US) in LEO that was launched on Wed, 22 Apr 2020 UTC via an FALCON 9 launch vehicle from the Air Force Eastern Test Range (AFETR). Payload-class satellites include a variety of spacecraft equipped with specific instruments for various scientific and technological missions. These include communications satellites like Starlink; space stations such as the ISS; scientific satellites like the Hubble; Earth observation satellites from companies like Planet Labs, Umbra, and HawkEye 360; GPS; miniature CubeSats for education and research; and military/defense satellites.

Loading next visibility...
Identifier
45564, 2020-025AK
Orbit
LEO
Last TLE update
21 hours ago
Origin
Manufacturer
SpaceX/Seattle
Mission
Operational Commercial Communications
Bus & Motor
STARLINK, Unknown motor
Mass
260 kg wet, ~248 kg dry
Launch date (UTC)
2020-04-22 (5 years ago)
Launch vehicle
FALCON 9
Launch site
Air Force Eastern Test Range (AFETR)
Object type
Payload
Rocket body
Debris
Shape & HBR
Box + 1 Pan, 8.86 m
Radar Cross Section
13.562 m², Large (>1 m²)

Expand to show TLE details & history

TLE from 21 hours ago
0 STARLINK-1356
1 45564U 20025AK  25128.41149967  .00003650  00000-0  26384-3 0  9992
2 45564  53.0544  17.0651 0001003  80.8814 279.2289 15.06389006279353
Epoch: 2025-05-08T09:52Z
Definitive object data (Epoch: 2025-05-08T09:52:33.571Z)
Latitude
0.00002°
Longitude
2.44286°
Altitude
548.013 km
Speed
7.589 km/s
True Right ascension
01h 08m 15s
True Declination
0° 00' 00"
Sunlit
Object was in daylight at TLE epoch
Visualization TLE readout
Latitude
51.95389°
Longitude
105.59659°
Altitude
552.826 km
Speed
7.592 km/s
Apparent Right ascension
05h 24m 08s
Apparent Declination
10° 26' 31"
Sunlit
Object is in daylight
Visualization observer readout
Local Sidereal Time
15:10:08
Azimuth
320.785° NNW
Elevation
-30.843°
Doppler factor
1
Orbital elements
Apogee altitude
548.211 km
Perigee altitude
546.821 km
Semi-major axis
6,925.653 km
Eccentricity
0.0001003
Inclination
53.0544°
RAAN
17.0651°
Arg. of periapsis
80.8814°
True anomaly
279.21756°
Mean anomaly
279.2289°
Eccentric anomaly
279.22323°
Mean motion
3.76576 °/min
BSTAR
0.00026384
Orbital period
95.6 mins
Loading maneuver chart data...
Loading SW <> Apogee altitude chart data...
Loading historical data...
Loading historical data...
Loading historical data...
Loading historical data...
Loading historical data...
Loading historical data...
Loading historical data...

STARLINK-1356 Visibility forecast

Observer location: undefined°, undefined°

Span
Click to sort rows by Start time (UTC) header in descending order
Start Az.
Max El. time (UTC)
Max El. Az.
Max El.
End time (UTC)
End Az.
5 mins2025-05-09 17:52:12.536Z172.554° S2025-05-09 17:55:12.536Z120.983° SE19.024°2025-05-09 17:57:12.536Z87.36° E
6 mins2025-05-09 19:31:12.536Z249.7° W2025-05-09 19:34:12.536Z332.885° NNW39.501°2025-05-09 19:37:12.536Z39.979° NE
5 mins2025-05-10 00:34:12.536Z348.83° N2025-05-10 00:36:12.536Z36.18° NE24.418°2025-05-10 00:39:12.536Z85.116° E
6 mins2025-05-10 02:13:12.536Z294.189° NW2025-05-10 02:15:12.536Z247.318° WSW38.404°2025-05-10 02:19:12.536Z148.109° SSE
|